• In Belgium
  • List of Countries
  • For 7 days
  • Water Temperature
  • Satellite Maps
  • Weather Map
  • Weather Widgets
  • user-avatar
    Login

    Hourly Weather Sabaudia

    Today, 22 September, Saturday

    Time Temperature Precipitation Wind Pressure Humidity
    00:00 +18°C° 0 mm 4 mps 734 mmHg 70%
    01:00 +17°C° 0 mm 4 mps 734 mmHg 70%
    02:00 +17°C° 0 mm 3 mps 733 mmHg 71%
    03:00 +17°C° 0 mm 3 mps 733 mmHg 69%
    04:00 +17°C° 0 mm 3 mps 734 mmHg 68%
    05:00 +17°C° 0 mm 4 mps 734 mmHg 66%
    06:00 +16°C° 0.2 mm 5 mps 735 mmHg 70%
    07:00 +15°C° 0.2 mm 5 mps 735 mmHg 75%
    08:00 +15°C° 0.2 mm 6 mps 736 mmHg 79%
    09:00 +14°C° 0.5 mm 6 mps 737 mmHg 81%
    10:00 +13°C° 0.5 mm 5 mps 738 mmHg 83%
    11:00 +12°C° 0.5 mm 4 mps 738 mmHg 85%
    12:00 +12°C° 0.6 mm 4 mps 738 mmHg 85%
    13:00 +12°C° 0.6 mm 4 mps 739 mmHg 85%
    14:00 +12°C° 0.6 mm 3 mps 739 mmHg 85%
    15:00 +12°C° 0.2 mm 3 mps 739 mmHg 82%
    16:00 +12°C° 0.2 mm 3 mps 738 mmHg 80%
    17:00 +12°C° 0.2 mm 3 mps 738 mmHg 78%
    18:00 +11°C° 0 mm 3 mps 738 mmHg 80%
    19:00 +10°C° 0 mm 3 mps 738 mmHg 83%
    20:00 +9°C° 0 mm 3 mps 738 mmHg 86%
    21:00 +9°C° 0 mm 3 mps 738 mmHg 85%
    22:00 +9°C° 0 mm 3 mps 738 mmHg 84%
    23:00 +9°C° 0 mm 3 mps 738 mmHg 83%

    Tomorrow, 23 September, Sunday

    Time Temperature Precipitation Wind Pressure Humidity
    00:00 +9°C° 0 mm 3 mps 738 mmHg 83%
    01:00 +9°C° 0 mm 3 mps 738 mmHg 83%
    02:00 +9°C° 0 mm 3 mps 738 mmHg 82%
    03:00 +9°C° 0 mm 3 mps 738 mmHg 82%
    04:00 +9°C° 0 mm 3 mps 738 mmHg 82%
    05:00 +9°C° 0 mm 3 mps 738 mmHg 81%
    06:00 +10°C° 0 mm 3 mps 738 mmHg 79%
    07:00 +10°C° 0 mm 4 mps 738 mmHg 77%
    08:00 +11°C° 0 mm 4 mps 738 mmHg 75%
    09:00 +12°C° 0 mm 4 mps 738 mmHg 68%
    10:00 +14°C° 0 mm 5 mps 738 mmHg 62%
    11:00 +16°C° 0 mm 5 mps 738 mmHg 55%
    12:00 +16°C° 0.1 mm 5 mps 738 mmHg 55%
    13:00 +16°C° 0.1 mm 5 mps 737 mmHg 54%
    14:00 +16°C° 0.1 mm 5 mps 737 mmHg 53%
    15:00 +17°C° 0 mm 4 mps 737 mmHg 57%
    16:00 +16°C° 0 mm 3 mps 736 mmHg 61%
    17:00 +16°C° 0 mm 2 mps 736 mmHg 65%
    18:00 +15°C° 0.1 mm 2 mps 735 mmHg 68%
    19:00 +14°C° 0.1 mm 2 mps 735 mmHg 72%
    20:00 +14°C° 0.1 mm 2 mps 734 mmHg 75%
    21:00 +13°C° 0.3 mm 3 mps 733 mmHg 77%
    22:00 +12°C° 0.3 mm 3 mps 732 mmHg 79%
    23:00 +12°C° 0.3 mm 4 mps 731 mmHg 81%

    Day after tomorrow, 24 September, Monday

    Time Temperature Precipitation Wind Pressure Humidity
    00:00 +13°C° 0.2 mm 5 mps 729 mmHg 79%
    01:00 +12°C° 0.2 mm 7 mps 728 mmHg 76%
    02:00 +13°C° 0.2 mm 9 mps 726 mmHg 73%
    03:00 +13°C° 1.3 mm 9 mps 725 mmHg 77%
    04:00 +14°C° 1.3 mm 10 mps 725 mmHg 81%
    05:00 +14°C° 1.3 mm 10 mps 724 mmHg 84%
    06:00 +13°C° 0.3 mm 11 mps 725 mmHg 83%
    07:00 +10°C° 0.3 mm 12 mps 726 mmHg 81%
    08:00 +9°C° 0.3 mm 12 mps 727 mmHg 80%
    09:00 +9°C° 0.1 mm 11 mps 729 mmHg 78%
    10:00 +8°C° 0.1 mm 10 mps 731 mmHg 75%
    11:00 +9°C° 0.1 mm 8 mps 733 mmHg 73%
    12:00 +8°C° 0.3 mm 9 mps 733 mmHg 73%
    13:00 +10°C° 0.3 mm 9 mps 734 mmHg 72%
    14:00 +10°C° 0.3 mm 9 mps 735 mmHg 72%
    15:00 +10°C° 0.2 mm 9 mps 735 mmHg 69%
    16:00 +10°C° 0.2 mm 8 mps 736 mmHg 67%
    17:00 +10°C° 0.2 mm 8 mps 736 mmHg 65%
    18:00 +9°C° 0 mm 7 mps 737 mmHg 66%
    19:00 +8°C° 0 mm 7 mps 737 mmHg 66%
    20:00 +7°C° 0 mm 6 mps 737 mmHg 67%
    21:00 +6°C° 0 mm 7 mps 738 mmHg 70%
    22:00 +6°C° 0 mm 7 mps 738 mmHg 74%
    23:00 +5°C° 0 mm 7 mps 739 mmHg 77%

    25 September, Tuesday

    Time Temperature Precipitation Wind Pressure Humidity
    00:00 +5°C° 0 mm 7 mps 739 mmHg 75%
    01:00 +5°C° 0 mm 7 mps 740 mmHg 74%
    02:00 +5°C° 0 mm 7 mps 741 mmHg 73%
    03:00 +5°C° 0 mm 7 mps 741 mmHg 74%
    04:00 +4°C° 0 mm 6 mps 742 mmHg 75%
    05:00 +3°C° 0 mm 6 mps 742 mmHg 76%
    06:00 +4°C° 0 mm 6 mps 743 mmHg 74%
    07:00 +4°C° 0 mm 6 mps 744 mmHg 71%
    08:00 +5°C° 0 mm 7 mps 744 mmHg 69%
    09:00 +6°C° 0 mm 7 mps 745 mmHg 64%
    10:00 +8°C° 0 mm 7 mps 745 mmHg 58%
    11:00 +9°C° 0 mm 8 mps 746 mmHg 53%
    12:00 +9°C° 0.2 mm 8 mps 746 mmHg 52%
    13:00 +10°C° 0.2 mm 8 mps 746 mmHg 51%
    14:00 +10°C° 0.2 mm 8 mps 746 mmHg 51%
    15:00 +10°C° 0.1 mm 7 mps 747 mmHg 53%
    16:00 +9°C° 0.1 mm 7 mps 747 mmHg 55%
    17:00 +9°C° 0.1 mm 6 mps 747 mmHg 57%
    18:00 +8°C° 0 mm 5 mps 748 mmHg 59%
    19:00 +7°C° 0 mm 5 mps 748 mmHg 60%
    20:00 +6°C° 0 mm 4 mps 749 mmHg 62%
    21:00 +5°C° 0 mm 4 mps 749 mmHg 64%
    22:00 +5°C° 0 mm 3 mps 750 mmHg 65%
    23:00 +4°C° 0 mm 3 mps 750 mmHg 67%

    26 September, Wednesday

    Time Temperature Precipitation Wind Pressure Humidity
    00:00 +4°C° 0 mm 3 mps 750 mmHg 68%
    01:00 +4°C° 0 mm 3 mps 750 mmHg 69%
    02:00 +3°C° 0 mm 3 mps 751 mmHg 71%
    03:00 +3°C° 0 mm 3 mps 751 mmHg 71%
    04:00 +3°C° 0 mm 3 mps 750 mmHg 72%
    05:00 +3°C° 0 mm 3 mps 750 mmHg 72%
    06:00 +3°C° 0 mm 4 mps 750 mmHg 71%
    07:00 +4°C° 0 mm 4 mps 750 mmHg 69%
    08:00 +5°C° 0 mm 4 mps 750 mmHg 67%
    09:00 +7°C° 0 mm 5 mps 750 mmHg 61%
    10:00 +8°C° 0 mm 5 mps 750 mmHg 56%
    11:00 +10°C° 0 mm 6 mps 750 mmHg 50%
    12:00 +11°C° 0 mm 6 mps 749 mmHg 48%
    13:00 +11°C° 0 mm 6 mps 749 mmHg 46%
    14:00 +13°C° 0 mm 6 mps 748 mmHg 43%
    15:00 +12°C° 0 mm 5 mps 748 mmHg 46%
    16:00 +12°C° 0 mm 5 mps 747 mmHg 48%
    17:00 +12°C° 0 mm 4 mps 746 mmHg 51%
    18:00 +11°C° 0 mm 4 mps 746 mmHg 51%
    19:00 +11°C° 0 mm 4 mps 746 mmHg 51%
    20:00 +10°C° 0 mm 4 mps 746 mmHg 52%
    21:00 +10°C° 0 mm 4 mps 745 mmHg 52%
    22:00 +9°C° 0 mm 5 mps 745 mmHg 52%
    23:00 +9°C° 0 mm 5 mps 745 mmHg 52%

    27 September, Thursday

    Time Temperature Precipitation Wind Pressure Humidity
    00:00 +9°C° 0 mm 5 mps 745 mmHg 52%
    01:00 +9°C° 0 mm 5 mps 744 mmHg 52%
    02:00 +8°C° 0 mm 5 mps 744 mmHg 52%
    03:00 +8°C° 0 mm 5 mps 744 mmHg 53%
    04:00 +8°C° 0 mm 5 mps 743 mmHg 53%
    05:00 +7°C° 0 mm 5 mps 743 mmHg 54%
    06:00 +8°C° 0 mm 6 mps 743 mmHg 54%
    07:00 +8°C° 0 mm 6 mps 742 mmHg 54%
    08:00 +8°C° 0 mm 6 mps 742 mmHg 54%
    09:00 +10°C° 0 mm 6 mps 742 mmHg 51%
    10:00 +11°C° 0 mm 7 mps 742 mmHg 48%
    11:00 +14°C° 0 mm 7 mps 741 mmHg 45%
    12:00 +15°C° 0 mm 7 mps 741 mmHg 44%
    13:00 +16°C° 0 mm 7 mps 740 mmHg 42%
    14:00 +17°C° 0 mm 7 mps 740 mmHg 41%
    15:00 +17°C° 0 mm 6 mps 739 mmHg 44%
    16:00 +16°C° 0 mm 6 mps 739 mmHg 46%
    17:00 +15°C° 0 mm 5 mps 738 mmHg 49%
    18:00 +14°C° 0 mm 5 mps 738 mmHg 49%
    19:00 +13°C° 0 mm 6 mps 738 mmHg 49%
    20:00 +11°C° 0 mm 6 mps 737 mmHg 50%
    21:00 +11°C° 0 mm 6 mps 737 mmHg 50%
    22:00 +11°C° 0 mm 6 mps 737 mmHg 50%
    23:00 +11°C° 0 mm 6 mps 737 mmHg 50%
    Show more